This demonstration page uses our WeatherBlox Daily Observations layout. Learn more.

Left ArrowRight Arrow

Hourly Observations for February 17, 2016

Temp ( °F °C ) Dew Point ( °F °C ) Humidity (%) Winds ( mph kmh ) Pressure ( in mb ) Visibility ( mi km ) Precip ( " mm )
12:59 am 00:59 Mostly Cloudy 44 6.7 35 1.7 71 71 NNW 3 6 29.91 1013 10 16 0.00 0.00
1:59 am 01:59 Cloudy 44 6.7 36 2.2 73 73 Calm 29.93 1014 10 16 0.00 0.00
2:59 am 02:59 Cloudy with Light Rain 42 5.6 37 2.8 82 82 Calm 29.93 1014 10 16 0.01 0.25
3:59 am 03:59 Cloudy 41 5 38 3.3 89 89 E 3 6 29.94 1014 10 16 0.00 0.03
4:59 am 04:59 Mostly Cloudy 40 4.4 37 2.8 89 89 ESE 3 6 29.96 1014 10 16 0.00 0.00
5:59 am 05:59 Mostly Cloudy 41 5 37 2.8 86 86 Calm 29.98 1015 10 16 0.00 0.00
6:59 am 06:59 Partly Cloudy 39 3.9 36 2.2 89 89 Calm 30.01 1016 7 11 0.00 0.00
7:59 am 07:59 Mostly Cloudy 42 5.6 39 3.9 89 89 Calm 30.04 1017 8 13 0.00 0.00
8:59 am 08:59 Mostly Cloudy 45 7.2 37 2.8 74 74 NNW 5 7 30.05 1018 9 14 0.00 0.00
9:59 am 09:59 Mostly Cloudy 46 7.8 33 0.6 61 61 NNW 5 7 30.09 1019 10 16 0.00 0.00
10:59 am 10:59 Mostly Cloudy 48 8.9 32 0 54 54 N 7 11 30.10 1019 10 16 0.00 0.00
11:59 am 11:59 Mostly Cloudy 50 10 32 0 50 50 NNE 8 13 30.10 1019 10 16 0.00 0.00
12:59 pm 12:59 Partly Cloudy 49 9.4 32 0 52 52 NNE 10 17 30.09 1019 10 16 0.00 0.00
1:59 pm 13:59 Mostly Sunny 50 10 31 -0.6 48 48 NE 7 11 30.09 1019 10 16 0.00 0.00
2:59 pm 14:59 Mostly Sunny 49 9.4 31 -0.6 50 50 NNE 8 13 30.10 1019 10 16 0.00 0.00
3:59 pm 15:59 Mostly Sunny 49 9.4 31 -0.6 50 50 NE 6 9 30.11 1020 10 16 0.00 0.00
4:59 pm 16:59 Mostly Sunny 46 7.8 30 -1.1 54 54 NE 6 9 30.14 1021 10 16 0.00 0.00
5:59 pm 17:59 Mostly Clear 42 5.6 32 0 68 68 NE 5 7 30.16 1021 10 16 0.00 0.00
6:59 pm 18:59 Mostly Clear 40 4.4 33 0.6 77 77 Calm 30.19 1022 9 14 0.00 0.00
7:59 pm 19:59 Clear 38 3.3 33 0.6 83 83 Calm 30.21 1023 8 13 0.00 0.00
8:59 pm 20:59 Mostly Clear with Mist and Fog 37 2.8 33 0.6 86 86 Calm 30.22 1023 5 8 0.00 0.00
9:59 pm 21:59 Mostly Cloudy 41 5 36 2.2 82 82 NNE 6 9 30.24 1024 9 14 0.00 0.00
10:59 pm 22:59 Cloudy 42 5.6 34 1.1 73 73 N 8 13 30.27 1025 10 16 0.00 0.00
11:59 pm 23:59 Clear 40 4.4 32 0 73 73 NNE 9 15 30.29 1026 10 16 0.00 0.00

Powered by AerisWeather